Preview of NWS' New Version of Forecast
This preview is not operational and should not be used for support decisions.

Regional Weather Roundup (RWR)

Issued by National Weather Service (NWS)

                            
000
ASUS43 KTOP 181059
RWRKS 

WEATHER ROUNDUP FOR KANSAS
NATIONAL WEATHER SERVICE GOODLAND KS
600 AM CDT SAT MAY 18 2019

NOTE:  "FAIR" INDICATES FEW OR NO CLOUDS BELOW 12,000 FEET WITH NO
SIGNIFICANT WEATHER AND/OR OBSTRUCTIONS TO VISIBILITY.

KSZ001>006-013>018-027>032-041>047-181200-
NORTHWEST KANSAS
  
CITY           SKY/WX    TMP DP  RH WIND       PRES   REMARKS
GOODLAND       PTCLDY    46  41  82 W12       29.67R                  
HAYS           CLOUDY    51  49  92 NW7       29.62F                  
HILL CITY      CLEAR     48  45  89 W5        29.63S                  
RUSSELL        CLEAR     54  49  83 W8        29.60S                  
$$

KSZ061>065-074>080-084>089-181200-
SOUTHWEST KANSAS
  
CITY           SKY/WX    TMP DP  RH WIND       PRES   REMARKS
DODGE CITY     CLEAR     49  44  83 NW6       29.64F                  
ELKHART        PTCLDY    51  44  75 NW6       29.71S                  
GARDEN CITY    PTCLDY    47  44  90 NW9       29.66F                  
GREAT BEND     PTCLDY    53  51  93 W8        29.62S                  
LIBERAL        PTCLDY    49  46  90 N7        29.67F                  
$$

KSZ066>073-081>083-090>101-181200-
SOUTHEAST KANSAS
  
CITY           SKY/WX    TMP DP  RH WIND       PRES   REMARKS
CHANUTE        CLOUDY    75  65  70 S20G31    29.67S                  
COFFEYVILLE    CLOUDY    73  65  75 S17G30    29.66F                  
HUTCHINSON     CLOUDY    70  66  87 S6        29.60S                  
MEDICINE LODGE   N/A     71  68  90 S6        29.58F                  
NEWTON         CLOUDY    72  67  84 S14       29.63S                  
PARSONS        CLOUDY    73  66  78 S14G26    29.69R                  
WICHITA INTL   CLOUDY    73  66  78 S14G24    29.61F                  
WICHITA JABRA  CLOUDY    73  66  78 S15G26    29.62R                  
WINFIELD       PTCLDY    71  66  84 S16G25    29.62F                  
$$

KSZ007>012-019>026-033>040-048>060-102>105-181200-
NORTHEAST KANSAS
  
CITY           SKY/WX    TMP DP  RH WIND       PRES   REMARKS
CONCORDIA      CLOUDY    61  56  83 S8        29.60R                  
EMPORIA        CLOUDY    72  66  81 S13       29.65R                  
LAWRENCE       LGT RAIN  64  58  80 NW12      29.69R                  
MANHATTAN      TSTM      61  58  90 SE8       29.64F FOG              
OLATHE IND     CLOUDY    71  61  70 S10G21    29.68R                  
OLATHE EXE     CLOUDY    71  61  70 S13       29.68R                  
SALINA         MOCLDY    63  56  78 SW13      29.59F                  
TOPEKA BILLARD LGT RAIN  63  59  87 W5        29.69S                  
TOPEKA FORBES  LGT RAIN  62  58  86 NW8       29.70R                  
$$